Chehalis, WA

9:30 PM PDT on September 20, 2017 (GMT -0700)
Chehalis-Centralia

Weather History for KCLS - October, 2012

Change the Weather History Date:

Thursday, October 11, 2012

  Actual Average (KTDO) Record (KTDO)
Temperature  
Mean Temperature 54 °F -  
Max Temperature 64 °F 66 °F 87 °F (1991)
Min Temperature 44 °F 41 °F 27 °F (1987)
Degree Days  
Heating Degree Days 11    
Growing Degree Days 4 (Base 50)    
Moisture  
Dew Point 47 °F    
Average Humidity 81    
Maximum Humidity 100    
Minimum Humidity 55    
Precipitation  
Precipitation 0.00 in - - ()
Sea Level Pressure  
Sea Level Pressure 29.93 in    
Wind  
Wind Speed 2 mph (NNE)    
Max Wind Speed 7 mph    
Max Gust Speed -    
Visibility 5 miles    
Events      
Averages and records for this station are not official NWS values.
T = Trace of Precipitation, MM = Missing Value Source: NWS Daily Summary

Daily Weather History Graph

Daily Weather History Graph

Search for Another Location

Airport or City:

Trip Planner

Search our weather history database for the weather conditions in past years. The results will help you decide how hot, cold, wet, or windy it might be!

Date:

Astronomy

Oct. 11, 2012 Rise Set
Actual Time 7:24 AM PDT 6:31 PM PDT
Civil Twilight 6:54 AM PDT 7:01 PM PDT
Nautical Twilight 6:19 AM PDT 7:36 PM PDT
Astronomical Twilight 5:44 AM PDT 8:11 PM PDT
Moon 2:55 AM PDT (10/11) 4:22 PM PDT (10/11)
Length of Visible Light 12h 07m
Length of Day
11h 06m
Waning Crescent, 17% of the Moon is Illuminated
Oct 11
Waning Crescent
Oct 15
New
Oct 21
First Quarter
Oct 29
Full
Nov 6
Last Quarter

Hourly Weather History & Observations

Time (PDT) Temp. Dew Point Humidity Pressure Visibility Wind Dir Wind Speed Gust Speed Precip Events Conditions
12:15 AM 50.0 °F 46.4 °F 87% 30.00 in 5.0 mi Calm Calm - N/A   Clear
12:35 AM 50.0 °F 46.4 °F 87% 30.01 in 5.0 mi NNW 3.5 mph - N/A   Clear
12:55 AM 50.0 °F 46.4 °F 87% 30.00 in 5.0 mi Calm Calm - N/A   Partly Cloudy
1:15 AM 50.0 °F 46.4 °F 87% 30.00 in 5.0 mi NNE 6.9 mph - N/A   Clear
1:35 AM 50.0 °F 46.4 °F 87% 30.00 in 5.0 mi North 5.8 mph - N/A   Clear
1:55 AM 50.0 °F 46.4 °F 87% 30.00 in 5.0 mi NNE 4.6 mph - N/A   Clear
2:15 AM 50.0 °F 46.4 °F 87% 29.99 in 5.0 mi NNE 6.9 mph - N/A   Clear
2:35 AM 50.0 °F 46.4 °F 87% 29.99 in 4.0 mi NNE 6.9 mph - N/A   Clear
2:55 AM 50.0 °F 46.4 °F 87% 29.99 in 6.0 mi NNE 3.5 mph - N/A   Clear
3:35 AM 50.0 °F 46.4 °F 87% 29.99 in 3.0 mi North 4.6 mph - N/A   Clear
3:55 AM 50.0 °F 46.4 °F 87% 29.99 in 3.0 mi Calm Calm - N/A   Clear
4:15 AM 50.0 °F 46.4 °F 87% 29.99 in 3.0 mi Calm Calm - N/A   Clear
4:35 AM 50.0 °F 46.4 °F 87% 29.99 in 3.0 mi Calm Calm - N/A   Clear
4:55 AM 50.0 °F 46.4 °F 87% 29.99 in 3.0 mi Calm Calm - N/A   Clear
5:35 AM 50.0 °F 46.4 °F 87% 29.99 in 3.0 mi Calm Calm - N/A   Clear
5:55 AM 50.0 °F 46.4 °F 87% 29.98 in 3.0 mi NNE 3.5 mph - N/A   Clear
6:15 AM 50.0 °F 46.4 °F 87% 29.98 in 3.0 mi NE 3.5 mph - N/A   Clear
6:35 AM 50.0 °F 46.4 °F 87% 29.98 in 4.0 mi ENE 4.6 mph - N/A   Clear
6:55 AM 50.0 °F 46.4 °F 87% 29.98 in 5.0 mi Calm Calm - N/A   Clear
7:35 AM 50.0 °F 46.4 °F 87% 29.98 in 4.0 mi East 3.5 mph - N/A   Clear
7:55 AM 50.0 °F 46.4 °F 87% 29.98 in 3.0 mi ESE 3.5 mph - N/A   Clear
8:15 AM 50.0 °F 46.4 °F 87% 29.98 in 2.5 mi Calm Calm - N/A   Clear
8:35 AM 50.0 °F 46.4 °F 87% 29.98 in 2.5 mi SSW 3.5 mph - N/A   Clear
8:55 AM 50.0 °F 46.4 °F 87% 29.98 in 3.0 mi SSE 3.5 mph - N/A   Clear
9:15 AM 50.0 °F 46.4 °F 87% 29.99 in 3.0 mi South 3.5 mph - N/A   Clear
9:35 AM 50.0 °F 46.4 °F 87% 29.99 in 3.0 mi Calm Calm - N/A   Haze
9:55 AM 50.0 °F 46.4 °F 87% 29.99 in 5.0 mi Calm Calm - N/A   Clear
10:15 AM 50.0 °F 46.4 °F 87% 29.98 in 5.0 mi Calm Calm - N/A   Clear
10:35 AM 51.8 °F 46.4 °F 82% 29.98 in 6.0 mi Calm Calm - N/A   Haze
10:55 AM 51.8 °F 46.4 °F 82% 29.98 in 3.0 mi Calm Calm - N/A   Haze
11:15 AM 53.6 °F 46.4 °F 77% 29.97 in 3.0 mi Calm Calm - N/A   Haze
11:35 AM 55.4 °F 46.4 °F 72% 29.97 in 9.0 mi West 3.5 mph - N/A   Clear
11:55 AM 53.6 °F 46.4 °F 77% 29.97 in 4.0 mi Calm Calm - N/A   Haze
12:15 PM 55.4 °F 46.4 °F 72% 29.96 in 4.0 mi Calm Calm - N/A   Haze
12:35 PM 57.2 °F 46.4 °F 67% 29.96 in 3.0 mi NNE 4.6 mph - N/A   Haze
1:15 PM 59.0 °F 46.4 °F 63% 29.93 in 3.0 mi East 3.5 mph - N/A   Haze
1:35 PM 59.0 °F 46.4 °F 63% 29.92 in 5.0 mi North 3.5 mph - N/A   Haze
1:55 PM 62.6 °F 46.4 °F 55% 29.91 in 4.0 mi Calm Calm - N/A   Haze
2:15 PM 62.6 °F 48.2 °F 59% 29.90 in 3.0 mi NNW 3.5 mph - N/A   Haze
2:35 PM 62.6 °F 48.2 °F 59% 29.89 in 4.0 mi Calm Calm - N/A   Haze
2:55 PM 64.4 °F 48.2 °F 56% 29.88 in 9.0 mi NNE 4.6 mph - N/A   Clear
3:15 PM 64.4 °F 48.2 °F 56% 29.88 in 2.5 mi Calm Calm - N/A   Haze
3:35 PM 64.4 °F 48.2 °F 56% 29.88 in 8.0 mi Calm Calm - N/A   Clear
4:35 PM 64.4 °F 48.2 °F 56% 29.85 in 10.0 mi Calm Calm - N/A   Clear
4:55 PM 64.4 °F 48.2 °F 56% 29.85 in 10.0 mi NNE 3.5 mph - N/A   Clear
5:15 PM 64.4 °F 48.2 °F 56% 29.84 in 10.0 mi Calm Calm - N/A   Clear
5:35 PM 64.4 °F 48.2 °F 56% 29.84 in 10.0 mi Calm Calm - N/A   Clear
6:15 PM 59.0 °F 50.0 °F 72% 29.83 in 9.0 mi Calm Calm - N/A   Clear
6:35 PM 57.2 °F 50.0 °F 77% 29.83 in 10.0 mi Calm Calm - N/A   Clear
6:55 PM 53.6 °F 48.2 °F 82% 29.82 in 9.0 mi Calm Calm - N/A   Clear
7:15 PM 51.8 °F 48.2 °F 88% 29.82 in 10.0 mi Calm Calm - N/A   Clear
8:15 PM 50.0 °F 48.2 °F 94% 29.83 in 10.0 mi Calm Calm - N/A   Clear
8:35 PM 48.2 °F 46.4 °F 93% 29.83 in 7.0 mi Calm Calm - N/A   Clear
9:15 PM 46.4 °F 46.4 °F 100% 29.84 in 10.0 mi Calm Calm - N/A   Clear
9:35 PM 46.4 °F 46.4 °F 100% 29.84 in 5.0 mi Calm Calm - N/A   Clear
10:35 PM 44.6 °F 44.6 °F 100% 29.84 in 2.0 mi Calm Calm - N/A   Clear
10:55 PM 46.4 °F 44.6 °F 93% 29.85 in 5.0 mi Calm Calm - N/A   Clear
11:15 PM 48.2 °F 46.4 °F 93% 29.86 in 5.0 mi Calm Calm - N/A   Clear
11:35 PM 48.2 °F 48.2 °F 100% 29.86 in 7.0 mi SW 4.6 mph - N/A   Partly Cloudy
11:55 PM 50.0 °F 48.2 °F 94% 29.87 in 5.0 mi SW 3.5 mph - N/A   Clear